Powrót do katalogu

GALILEO 27 (223)

AktywnyNawigacjaMEO
NORAD 49809·PAYLOAD·🇪🇺 EU

Wystrzelony Dec 5, 2021 z Guiana Space Centre

Loading…

Następne Przeloty (najbliższe 24 godziny)

TLE

ŚwieżeSource: CelesTrak SupGP

Epoka: Sep 13, 2026, 23:59 UTC

1 49809C 21116A   26256.99979167  .00000000  00000+0  00000+0 0  2563
2 49809  57.1244 339.2762 0003947 220.7254  45.4995  1.70476629    11

Śledź GALILEO 27 (223) w czasie rzeczywistym z AllMySat

Download on the App Store